Tracking 31027 objects as of 19-Jul-2025
HD Live streaming from Space Station
objects crossing your sky now

STARLINK-5865

Track STARLINK-5865 now!
10-day predictions
STARLINK-5865 is classified as:


NORAD ID: 57053
Int'l Code: 2023-088F
Perigee: 565.4 km
Apogee: 567.0 km
Inclination: 43.0 °
Period: 95.8 minutes
Semi major axis: 6937 km
RCS: Unknown
Launch date: June 22, 2023
Source: United States (US)
Launch site: AIR FORCE WESTERN TEST RANGE (AFWTR)
Your satellite tracking list
STARLINK-6351
Track 1 satellite(s)




NASA's NSSDC Master Catalog

Two Line Element Set (TLE):
1 57053U 23088F   25199.58507185  .00000331  00000-0  39581-4 0  9993
2 57053  43.0035 299.5955 0001180 267.3243  92.7464 15.02545377115152
Source of the keplerian elements: AFSPC